www.pogodaiklimat.ru

Погода и климат >> Архив погоды >> Иран >> Kish Island


ПОГОДА в Kish Island

  • Прогноз погоды в Kish Island
  • Монитор погоды в Kish Island
  • Климат города

АРХИВ ПОГОДЫ в Kish Island

Время (UTC), дата Ветер
(напр.,м/с)
 
Видим.   Явления Облачность Т
(С)
Тd
(С)
f
(%)
Тe
(С)
Тes
(С)
Комфортность P
(гПа)
Po
(гПа)
Тmin
(С)
Tmax
(С)
R
(мм)
R24
(мм)
S
(см)
00 12.12 СЗ 4 10 км ясно +20.6 +13.3 63 +23 +23 комфорт 1014.4 1010.9
03 12.12 СЗ 5 12 км ясно +20.4 +13.4 64 +23 +23 комфорт 1014.8 1011.3 +20.0
06 12.12 СЗ 5 12 км ясно +22.6 +12.9 54 +25 +28 комфорт 1016.4 1012.9
09 12.12 СЗ 4 12 км ясно +24.6 +5.9 30 +24 +30 комфорт 1014.9 1011.4
12 12.12 Ю 2 12 км ясно +25.6 +8.7 34 +26 +28 жарко 1014.4 1010.9
15 12.12 штиль 0 12 км ясно +20.8 +8.7 46 +22 +22 комфорт 1016.3 1012.8 +26.6
18 12.12 В 3 12 км ясно +19.0 +6.1 43 +20 +20 1017.5 1014.0
21 12.12 СВ 3 12 км ясно +18.6 +9.5 55 +19 +19 1017.8 1014.1
00 13.12 СВ 2 10 км ясно +18.4 +10.2 59 +19 +19 1017.7 1014.2
03 13.12 В 3 12 км ясно +19.0 +9.6 54 +20 +20 1017.9 1014.4 +17.8
06 13.12 В 6 12 км ясно +23.0 +1.6 24 +22 +24 комфорт 1020.0 1016.5
09 13.12 ЮВ 5 10 км ясно +24.0 +6.0 31 +24 +29 комфорт 1018.5 1015.0
12 13.12 ЮВ 4 10 км ясно +23.6 +7.1 35 +24 +25 комфорт 1016.8 1013.3
15 13.12 В 2 10 км ясно +20.6 +8.4 45 +23 +23 комфорт 1017.3 1013.8 +24.6
18 13.12 В 2 10 км ясно +18.4 +8.3 52 +19 +19 1017.7 1014.2
21 13.12 штиль 0 10 км ясно +17.8 +9.4 58 +18 +18 1017.3 1013.8
00 14.12 В 2 10 км ясно +18.6 +6.6 45 +19 +19 1017.0 1013.5
03 14.12 В 2 10 км 8/5 1050 м
[Sc Ci fib]
+19.6 +5.3 39 +21 +21 комфорт 1017.8 1014.3 +17.6
06 14.12 В 3 10 км 6/1 1050 м
[Sc Ci sp]
+22.0 +1.8 26 +22 +25 комфорт 1019.7 1016.2
09 14.12 В 5 12 км 3/0
[Cc]
+23.4 +6.8 34 +24 +28 комфорт 1018.3 1014.8
12 14.12 ЮВ 7 12 км ясно +23.2 +11.9 49 +26 +26 жарко 1016.8 1013.3
15 14.12 В 4 12 км ясно +21.2 +12.8 59 +23 +23 комфорт 1017.2 1013.7 +24.2
18 14.12 штиль 0 12 км ясно +19.6 +9.7 53 +21 +21 комфорт 1017.7 1014.2
21 14.12 В 5 12 км 3/0
[Ci fib]
+20.8 +11.6 56 +23 +23 комфорт 1016.9 1013.4
00 15.12 В 4 12 км 3/0
[Ci fib]
+20.0 +10.9 56 +22 +22 комфорт 1016.3 1012.8
03 15.12 В 5 12 км 5/4 750 м
[Cu med, cong Ci fib]
+20.4 +11.6 57 +22 +22 комфорт 1017.1 1013.6 +19.2
06 15.12 В 7 10 км гроза без осадков 8/6 750 м
[Cb cap As trans]
+22.4 +14.6 61 +26 +26 жарко 1018.6 1015.1
09 15.12 ЮВ 14 8000 м гроза без осадков {дождь} 9/8 750 м
[Cb cap As op]
+22.8 +16.2 66 +27 +27 душно 1016.7 1013.2
12 15.12 Ю 8 10 км 5/4 750 м
[Cb calv As trans Ci fib]
+24.2 +16.0 60 +27 +28 жарко 1016.9 1013.4 0.1
15 15.12 СВ 8 7000 м пыльный позёмок 6/4 750 м
[Cb calv Ac trans Ci fib]
+22.0 +15.3 66 +26 +26 душно 1018.2 1014.7 +24.6
18 15.12 В 5 7000 м мгла 6/4 750 м
[Cb calv Ac trans Ci fib]
+21.6 +16.0 70 +25 +25 комфорт 1019.0 1015.5
21 15.12 В 5 7000 м мгла 6/4 750 м
[Cb calv Ac trans Ci fib]
+21.2 +15.5 70 +24 +24 комфорт 1018.2 1014.7
00 16.12 В 11 7000 м гроза без осадков 8/5 450 м
[Cb cap Ac trans Ci fib]
+21.2 +16.2 73 +25 +25 комфорт 1017.3 1013.8
03 16.12 СВ 9 4000 м гроза, ливневой дождь 9/6 750 м
[Cb cap As op]
+20.0 +15.3 74 +22 +22 комфорт 1018.5 1015.0 +20.0
06 16.12 СВ 12 2000 м сильная гроза, ливневой дождь 10/8 600 м
[Cb cap As op]
+15.0 +15.0 100 +12 +12 1021.4 1017.9 25
09 16.12 С 12 7000 м гроза, ливневой дождь 10/8 600 м
[Cb cap As op]
+16.8 +16.8 100 +15 +15 1020.4 1016.9
12 16.12 СВ 8 5000 м гроза, ливневой дождь 10/8 600 м
[Cb cap As op]
+15.4 +15.4 100 +13 +13 1020.4 1016.9 24
15 16.12 СВ 7 5000 м слабый дождь {гроза, ливн. осадки} 10/8 600 м
[Cb calv As op]
+15.8 +13.7 87 +14 +14 1020.8 1017.2 +20.2
18 16.12 С 4 5000 м в посл. час дождь {гроза} 8/6 600 м
[Cb calv As op]
+16.6 +13.4 81 +16 +16 1020.8 1017.2 18
21 16.12 СВ 3 7000 м дымка 8/5 750 м
[Cb calv Ac As]
+17.4 +13.9 80 +17 +17 1019.0 1015.5
00 17.12 В 4 7000 м мгла 8/5 750 м
[Cb calv Ac As]
+18.4 +13.9 75 +19 +19 1018.8 1015.2
03 17.12 СЗ 7 7000 м гроза без осадков {дождь} 9/8 450 м
[Cb cap As op]
+17.6 +13.7 78 +17 +17 1020.2 1016.6 +15.4
06 17.12 Ю 3 6000 м гроза, ливневой дождь 9/8 450 м
[Cb cap As op]
+16.2 +14.8 91 +16 +16 1022.1 1018.5 7
09 17.12 В 5 5000 м гроза, ливневой дождь 10/9 300 м
[St As op]
+16.8 +15.1 90 +16 +16 1021.0 1017.4
12 17.12 СВ 10 8000 м пыльный позёмок {гроза, дождь} 9/8 300 м
[Frnb Ac trans Cs]
+17.8 +13.6 76 +17 +17 1017.2 1013.7 7
15 17.12 СВ 7 8000 м гроза без осадков 9/6 600 м
[Cb calv As op]
+18.4 +14.2 77 +18 +18 1018.8 1015.2 +18.8
18 17.12 В 4 8000 м мгла {гроза} 6/4 600 м
[Cb calv Ac trans]
+18.8 +14.3 75 +20 +20 1019.9 1016.3
21 17.12 ЮВ 3 10 км 5/4 600 м
[Cb calv Ac trans]
+17.2 +12.9 76 +17 +17 1020.1 1016.5
00 18.12 В 2 5000 м гроза, ливневой дождь 8/4 600 м
[Cb cap As op]
+17.6 +13.5 77 +18 +18 1020.1 1016.5
03 18.12 В 3 10 км гроза без осадков {дождь} 6/5 600 м
[Cb cap Ac trans]
+17.4 +13.7 79 +17 +17 1021.4 1017.8 +16.6
06 18.12 В 8 10 км 6/3 750 м
[Cu hum Ac trans]
+19.0 +13.8 72 +19 +20 1022.9 1019.3 1
09 18.12 В 5 10 км 3/1 750 м
[Cu hum Ac trans]
+21.6 +12.6 57 +24 +28 комфорт 1022.3 1018.8
12 18.12 Ю 3 12 км 1/1 750 м
[Cu med, cong]
+22.2 +13.6 58 +25 +27 комфорт 1020.5 1016.9
15 18.12 штиль 0 12 км 1/1 750 м
[Cu hum]
+19.6 +13.7 69 +21 +21 комфорт 1021.4 1017.8 +23.0
18 18.12 штиль 0 12 км ясно +19.0 +13.8 72 +20 +20 1022.5 1018.9
21 18.12 штиль 0 12 км ясно +18.6 +14.3 76 +19 +19 1018.4

 

Местоположение метеостанции Kish Island (Иран): широта 26.50 долгота 53.98 высота над уровнем моря 30 м.

В архиве по умолчанию представлена погода в Kish Island за последнюю неделю. Архивные данные за месяц целиком и за предыдущие месяцы, начиная с января 2011 года, Вы можете получить, выбрав интересующий диапазон дат из раскрывающегося списка и нажав кнопку "Ввод!".

Внимание! Время в таблицах - всемирное. Для получения местного времени необходимо прибавить поправку, которая в Kish Island равна 3.5 ч.

Смотрите также архив погоды в соседних городах и на ближайших метеорологических станциях:

Погода в Bandar Lengeh (Иран) (85 км)
Погода в Sirri Island (Иран) (87 км)
Погода в Abu Musa Island (Иран) (113 км)
Погода в Dubai (ОАЭ) (194 км)
Погода в Sharjah (ОАЭ) (202 км)
Погода в Dubai Al Maktoum Int Airport (ОАЭ) (214 км)
Погода в Ras Al Khaimah Int Airport (ОАЭ) (218 км)
Погода в Khasab Airport (Оман) (227 км)
Погода в Khasab (Оман) (228 км)
Погода в Abu Dhabi Bateen Airport (ОАЭ) (235 км)

Пояснения к столбцам:

Ветер - указаны скорость ветра в м/с - средняя за 10 мин, порывы в срок и между сроками (в фигурных скобках) и направление, откуда дует ветер: С - северный, СВ - северо-восточный, В - восточный, ЮВ - юго-восточный, Ю - южный, ЮЗ - юго-западный, З - западный, СЗ - северо-западный.
Видимость - горизонтальная дальность видимости в метрах или километрах. При видимости от 1 до 10 км при отсутствии осадков обычно наблюдается дымка, при ухудшении видимости до 1 км и менее - туман. В сухую погоду видимость может ухудшаться дымом, пылью или мглою.
Явления - указаны атмосферные явления, наблюдавшиеся в срок или в последний час перед сроком; фигурными скобками обозначены явления, наблюдавшиеся между сроками (за 1-3 часа до срока); квадратными скобками обозначены град или гололедные отложения с указанием их диаметра в мм.
Облачность - указаны через наклонную черту общая и нижняя облачность в баллах и высота нижней границы облаков в метрах; квадратными скобками обозначены формы облаков: Ci - перистые, Cs - перисто-слоистые, Cc - перисто-кучевые, Ac - высококучевые, As - высокослоистые, Sc - слоисто-кучевые, Ns - слоисто-дождевые, Cu - кучевые, Cb - кучево-дождевые. Подробнее классификацию облаков см. в Атласе облаков (PDF).
T - Температура воздуха - температура, измеренная на высоте 2 м над землей.
Td - Температура точки росы - температура, при понижении до которой содержащийся в воздухе водяной пар достигнет насыщения.
f - Относительная влажность воздуха - влажноcть воздуха, измеренная на высоте 2 м над землей.
Te - Эффективная температура - температура, которую ощущает одетый по сезону человек в тени. Характеристика душности погоды. При расчете учитывается влияние влажности воздуха и скорости ветра на теплоощущения человека.
Tes - Эффективная температура на солнце - температура, которую ощущает человек, с поправкой на солнечный нагрев. Характеристика знойности погоды. Зависит от высоты солнца над горизонтом, облачности и скорости ветра. Ночью, в пасмурную погоду, а также при ветре 12 м/с и более поправка равна нулю.
P - Атмосферное давление - приведенное к уровню моря атмосферное давление.
Po - Атмосферное давление - измеренное на уровне метеостанции атмосферное давление.
Tmin - Минимальная температура - минимум температуры воздуха на высоте 2 м над землей.
Tmax - Максимальная температура - максимум температуры воздуха на высоте 2 м над землей.
R - Количество осадков - Количество выпавших осадков за период времени, мм. При наведении курсора мыши на число - период времени, за который выпало указанное количество осадков.
R24 - Количество осадков - Количество выпавших осадков за 24 часа, мм.
S - Снежный покров - Высота снежного покрова, см. При наведении курсора мыши на число - состояние снежного покрова и степень покрытия местности в баллах.